GW0323 Weather Reports


time (UTC)temp
C
wind
direction
speed
KPH
gust
KPH
rain 1hr
cm
rain 24hr
cm
rain mn
cm
humidity
%
barometer
mb
20260906173030 25 191 8.0 12.9 0.00 0.00 0.00 72 1020.1
20260906172511 25 123 6.4 14.5 0.00 0.00 0.00 73 1020.2
20260906172017 24 146 8.0 14.5 0.00 0.00 0.00 74 1020.3
20260906171519 24 53 4.8 9.7 0.00 0.00 0.00 76 1020.4
20260906171023 24 53 4.8 9.7 0.00 0.00 0.00 76 1020.4
20260906170525 24 360 4.8 9.7 0.00 0.00 0.00 78 1020.2
20260906170027 23 202 3.2 6.4 0.00 0.00 0.00 79 1020.2
20260906165529 23 55 3.2 16.1 0.00 0.00 0.00 78 1020.3
20260906165031 23 139 9.7 16.1 0.00 0.00 0.00 77 1020.3
20260906164514 23 5 3.2 14.5 0.00 0.00 0.00 79 1020.4
20260906164019 23 109 4.8 12.9 0.00 0.00 0.00 77 1020.5
20260906163524 23 299 4.8 11.3 0.00 0.00 0.00 79 1020.6
20260906163049 23 200 4.8 11.3 0.00 0.00 0.00 77 1020.6
20260906162551 23 114 3.2 8.0 0.00 0.00 0.00 78 1020.5
20260906162033 23 84 3.2 8.0 0.00 0.00 0.00 77 1020.5
20260906161517 23 161 4.8 9.7 0.00 0.00 0.00 79 1020.5
20260906161021 22 192 3.2 8.0 0.00 0.00 0.00 80 1020.6
20260906160524 22 150 3.2 9.7 0.00 0.00 0.00 78 1020.6
20260906160026 22 225 3.2 9.7 0.00 0.00 0.00 77 1020.6
20260906155549 22 182 3.2 11.3 0.00 0.00 0.00 80 1020.6
20260906155052 22 233 6.4 14.5 0.00 0.00 0.00 78 1020.6
20260906154515 22 173 6.4 14.5 0.00 0.00 0.00 81 1020.6
20260906154039 22 239 4.8 11.3 0.00 0.00 0.00 81 1020.7
20260906153518 22 283 3.2 4.8 0.00 0.00 0.00 85 1020.8
20260906153023 21 115 1.6 9.7 0.00 0.00 0.00 83 1020.8
20260906152525 21 115 3.2 11.3 0.00 0.00 0.00 86 1020.8
20260906152027 21 153 4.8 11.3 0.00 0.00 0.00 83 1020.7
20260906151528 21 209 0.0 9.7 0.00 0.00 0.00 84 1020.6
20260906151013 21 167 4.8 9.7 0.00 0.00 0.00 85 1020.5
20260906150518 21 280 3.2 4.8 0.00 0.00 0.00 85 1020.5
20260906150024 21 280 1.6 4.8 0.00 0.00 0.00 87 1020.6
20260906145524 20 165 0.0 4.8 0.00 0.00 0.00 88 1020.6
20260906145031 20 165 1.6 4.8 0.00 0.00 0.00 87 1020.5
20260906144551 20 254 1.6 11.3 0.00 0.00 0.00 88 1020.4
20260906144016 20 176 4.8 11.3 0.00 0.00 0.00 89 1020.4
20260906143536 20 315 4.8 9.7 0.00 0.00 0.00 90 1020.4
20260906143018 20 322 3.2 8.0 0.00 0.00 0.00 90 1020.3
20260906142521 20 110 3.2 8.0 0.00 0.00 0.00 90 1020.3
20260906142044 20 125 1.6 4.8 0.00 0.00 0.00 90 1020.2
20260906141544 20 125 1.6 9.7 0.00 0.00 0.00 90 1020.1
20260906141028 19 104 4.8 9.7 0.00 0.00 0.00 91 1020.1
20260906140528 19 96 1.6 6.4 0.00 0.00 0.00 92 1020.1
20260906140013 19 153 1.6 6.4 0.00 0.00 0.00 93 1020.0
20260906135514 18 153 1.6 6.4 0.00 0.00 0.00 93 1020.1
20260906135039 18 202 3.2 8.0 0.00 0.00 0.00 94 1020.1
20260906134520 18 34 3.2 8.0 0.00 0.00 0.00 94 1020.3
20260906134042 18 192 1.6 4.8 0.00 0.00 0.00 95 1020.3
20260906133523 18 192 1.6 6.4 0.00 0.00 0.00 95 1020.3
20260906133029 18 192 3.2 6.4 0.00 0.00 0.00 95 1020.3
20260906132531 18 192 1.6 4.8 0.00 0.00 0.00 95 1020.4
20260906132016 18 192 1.6 4.8 0.00 0.00 0.00 96 1020.3
20260906131516 18 192 3.2 6.4 0.00 0.00 0.00 96 1020.5
20260906131041 18 192 3.2 6.4 0.00 0.00 0.00 96 1020.5
20260906130519 18 192 3.2 6.4 0.00 0.00 0.00 97 1020.5
20260906130027 18 192 1.6 8.0 0.00 0.00 0.00 97 1020.4
20260906125527 18 192 1.6 8.0 0.00 0.00 0.00 97 1020.3
20260906125032 18 192 3.2 6.4 0.00 0.00 0.00 97 1020.3
20260906124532 18 192 1.6 8.0 0.00 0.00 0.00 97 1020.3
20260906124015 18 192 4.8 8.0 0.00 0.00 0.00 97 1020.2
20260906123517 18 267 1.6 4.8 0.00 0.00 0.00 97 1020.2
20260906123022 18 303 1.6 6.4 0.00 0.00 0.00 97 1020.2
20260906122523 18 146 3.2 6.4 0.00 0.00 0.00 97 1020.1
20260906122027 18 211 1.6 4.8 0.00 0.00 0.00 97 1020.1
20260906121530 18 242 3.2 6.4 0.00 0.00 0.00 97 1020.0
20260906121014 18 69 3.2 6.4 0.00 0.00 0.00 97 1019.9
20260906120515 18 131 1.6 4.8 0.00 0.00 0.00 97 1019.7
20260906120018 18 131 1.6 4.8 0.00 0.00 0.00 97 1019.6
20260906115521 18 131 1.6 4.8 0.00 0.00 0.00 97 1019.5
20260906115026 18 131 0.0 8.0 0.00 0.00 0.00 97 1019.4
20260906114547 18 292 3.2 11.3 0.00 0.00 0.00 97 1019.3
20260906114013 18 342 1.6 11.3 0.00 0.00 0.00 97 1019.2
20260906113516 18 156 1.6 8.0 0.00 0.00 0.00 97 1019.2
20260906113019 18 156 3.2 8.0 0.00 0.00 0.00 97 1019.1
20260906112540 18 319 3.2 6.4 0.00 0.00 0.00 97 1019.1
20260906112023 18 304 3.2 6.4 0.00 0.00 0.00 97 1019.0
20260906111524 18 143 1.6 6.4 0.00 0.00 0.00 97 1019.0
20260906111026 18 35 3.2 6.4 0.00 0.00 0.00 97 1019.1
20260906110527 18 71 3.2 6.4 0.00 0.00 0.00 97 1019.1
20260906110033 18 331 1.6 4.8 0.00 0.00 0.00 97 1019.1
20260906105514 18 350 1.6 4.8 0.00 0.00 0.00 96 1019.2
20260906105018 18 340 0.0 6.4 0.00 0.00 0.00 96 1019.1
20260906104519 18 275 1.6 8.0 0.00 0.00 0.00 97 1019.1
20260906104021 18 28 3.2 8.0 0.00 0.00 0.00 96 1019.0
20260906103523 18 22 3.2 6.4 0.00 0.00 0.00 96 1019.0
20260906103028 18 22 3.2 4.8 0.00 0.00 0.00 96 1019.0
20260906102512 18 22 0.0 4.8 0.00 0.00 0.00 96 1019.1
20260906102017 18 22 1.6 4.8 0.00 0.00 0.00 96 1019.0
20260906101517 18 22 0.0 3.2 0.00 0.00 0.00 96 1018.9
20260906101036 18 22 0.0 6.4 0.00 0.00 0.00 96 1018.7
20260906100515 18 22 3.2 8.0 0.00 0.00 0.00 96 1018.6
20260906100017 18 22 1.6 8.0 0.00 0.00 0.00 96 1018.5
20260906095518 18 71 3.2 4.8 0.00 0.00 0.00 96 1018.5
20260906095023 18 325 3.2 8.0 0.00 0.00 0.00 96 1018.4
20260906094525 18 325 0.0 8.0 0.00 0.00 0.00 96 1018.3
20260906094029 18 326 0.0 6.4 0.00 0.00 0.00 96 1018.3
20260906093531 18 326 3.2 6.4 0.00 0.00 0.00 96 1018.2
20260906093017 18 259 3.2 4.8 0.00 0.00 0.00 96 1018.1
20260906092539 18 259 1.6 4.8 0.00 0.00 0.00 96 1018.1
20260906092021 18 317 1.6 4.8 0.00 0.00 0.00 96 1018.2
20260906091524 18 299 1.6 4.8 0.00 0.00 0.00 96 1018.4
20260906091027 18 307 1.6 4.8 0.00 0.00 0.00 96 1018.4
20260906090529 18 19 0.0 6.4 0.00 0.00 0.00 95 1018.3
20260906090013 18 19 3.2 8.0 0.00 0.00 0.00 95 1018.4
20260906085535 18 26 1.6 8.0 0.00 0.00 0.00 96 1018.4
20260906085016 18 338 4.8 6.4 0.00 0.00 0.00 96 1018.5
20260906084519 18 338 3.2 4.8 0.00 0.00 0.00 96 1018.5
20260906084023 19 338 1.6 6.4 0.00 0.00 0.00 96 1018.5
20260906083525 19 338 3.2 6.4 0.00 0.00 0.00 96 1018.5
20260906083030 19 338 3.2 6.4 0.00 0.00 0.00 96 1018.6
20260906082513 19 338 3.2 8.0 0.00 0.00 0.00 96 1018.7
20260906082017 19 338 1.6 6.4 0.00 0.00 0.00 96 1018.7
20260906081517 19 309 1.6 6.4 0.00 0.00 0.00 96 1018.6
20260906081022 19 323 3.2 6.4 0.00 0.00 0.00 96 1018.5
20260906080523 19 350 1.6 4.8 0.00 0.00 0.00 96 1018.6
20260906080030 19 40 0.0 6.4 0.00 0.00 0.00 96 1018.5
20260906075512 19 5 1.6 6.4 0.00 0.00 0.00 96 1018.6
20260906075017 19 360 3.2 8.0 0.00 0.00 0.00 96 1018.7
20260906074521 19 350 4.8 8.0 0.00 0.00 0.00 96 1018.8
20260906074025 19 13 3.2 6.4 0.00 0.00 0.00 96 1018.8
20260906073529 19 13 4.8 6.4 0.00 0.00 0.00 96 1018.7
20260906073014 19 13 3.2 8.0 0.00 0.00 0.00 96 1018.7
20260906072516 19 13 4.8 8.0 0.00 0.00 0.00 96 1018.6
20260906072020 19 60 3.2 4.8 0.00 0.00 0.00 96 1018.5
20260906071521 19 60 1.6 6.4 0.00 0.00 0.00 96 1018.6
20260906071024 19 60 3.2 6.4 0.00 0.00 0.00 97 1018.7
20260906070528 19 65 3.2 4.8 0.00 0.00 0.00 97 1018.9
20260906070013 19 65 3.2 6.4 0.00 0.00 0.00 97 1018.9
20260906065514 18 65 3.2 4.8 0.00 0.00 0.00 96 1019.1
20260906065041 18 65 0.0 1.6 0.00 0.00 0.00 96 1019.1
20260906064541 18 65 0.0 1.6 0.00 0.00 0.00 96 1019.0
20260906064024 18 65 0.0 1.6 0.00 0.00 0.00 96 1019.0
20260906063525 18 65 0.0 1.6 0.00 0.00 0.00 96 1019.1
20260906063026 19 65 0.0 3.2 0.00 0.00 0.00 96 1019.0
20260906062527 19 65 1.6 3.2 0.00 0.00 0.00 96 1019.0
20260906062032 19 65 0.0 1.6 0.00 0.00 0.00 96 1019.0
20260906061536 19 65 0.0 1.6 0.00 0.00 0.00 96 1019.0
20260906061021 19 65 0.0 0.0 0.00 0.00 0.00 96 1018.9
20260906060542 19 65 0.0 3.2 0.00 0.00 0.00 95 1018.9
20260906060048 19 65 1.6 3.2 0.00 0.00 0.00 96 1018.8
20260906055545 19 65 1.6 3.2 0.00 0.00 0.00 95 1018.8
20260906055027 19 65 1.6 3.2 0.00 0.00 0.00 95 1018.8
20260906054530 19 65 0.0 0.0 0.00 0.00 0.00 95 1018.8
20260906054015 19 65 0.0 0.0 0.00 0.00 0.00 95 1018.7
20260906053517 20 65 0.0 1.6 0.00 0.00 0.00 94 1018.7
20260906053021 20 65 0.0 3.2 0.00 0.00 0.00 94 1018.7
20260906052524 20 65 1.6 6.4 0.00 0.00 0.00 94 1018.7
20260906052029 20 65 1.6 6.4 0.00 0.00 0.00 95 1018.6
20260906051530 20 65 3.2 4.8 0.00 0.00 0.00 95 1018.6
20260906051014 20 65 3.2 3.2 0.00 0.00 0.00 95 1018.6
20260906050517 20 64 0.0 4.8 0.00 0.00 0.00 95 1018.7
20260906050020 20 64 1.6 4.8 0.00 0.00 0.00 95 1018.6
20260906045522 20 307 1.6 4.8 0.00 0.00 0.00 94 1018.5
20260906045028 20 307 1.6 4.8 0.00 0.00 0.00 94 1018.5
20260906044512 20 47 1.6 4.8 0.00 0.00 0.00 94 1018.5
20260906044015 20 47 0.0 3.2 0.00 0.00 0.00 94 1018.7
20260906043536 20 47 1.6 4.8 0.00 0.00 0.00 94 1018.7
20260906043020 20 47 1.6 4.8 0.00 0.00 0.00 94 1018.7
20260906042521 20 47 1.6 4.8 0.00 0.00 0.00 94 1018.8
20260906042025 20 47 3.2 4.8 0.00 0.00 0.00 93 1018.8
20260906041526 20 47 1.6 4.8 0.00 0.00 0.00 93 1018.8
20260906041031 20 47 3.2 3.2 0.00 0.00 0.00 93 1018.8
20260906040533 20 47 0.0 6.4 0.00 0.00 0.00 93 1018.8
20260906040018 21 47 3.2 6.4 0.00 0.00 0.00 94 1018.8
20260906035518 21 63 3.2 4.8 0.00 0.00 0.00 93 1018.8
20260906035043 21 63 1.6 4.8 0.00 0.00 0.00 93 1018.7
20260906034523 21 63 3.2 4.8 0.00 0.00 0.00 93 1018.5
20260906034030 21 63 3.2 3.2 0.00 0.00 0.00 93 1018.4
20260906033512 21 63 1.6 4.8 0.00 0.00 0.00 93 1018.4
20260906033017 21 63 3.2 4.8 0.00 0.00 0.00 93 1018.2
20260906032539 21 63 3.2 4.8 0.00 0.00 0.00 93 1018.2
20260906032023 21 63 3.2 4.8 0.00 0.00 0.00 92 1018.2
20260906031525 21 63 3.2 4.8 0.00 0.00 0.00 93 1018.1
20260906031029 21 63 3.2 4.8 0.00 0.00 0.00 92 1018.0
20260906030512 21 63 3.2 6.4 0.00 0.00 0.00 92 1018.0
20260906030037 21 63 3.2 6.4 0.00 0.00 0.00 92 1018.0
20260906025516 21 313 3.2 4.8 0.00 0.00 0.00 92 1017.9
20260906025021 21 313 0.0 3.2 0.00 0.00 0.00 91 1017.7
20260906024544 21 313 0.0 3.2 0.00 0.00 0.00 91 1017.6
20260906024048 21 313 0.0 3.2 0.00 0.00 0.00 91 1017.5
20260906023548 21 313 1.6 3.2 0.00 0.00 0.00 91 1017.6
20260906023030 21 313 1.6 3.2 0.00 0.00 0.00 90 1017.5
20260906022551 21 313 0.0 3.2 0.00 0.00 0.00 90 1017.5
20260906022015 21 313 1.6 3.2 0.00 0.00 0.00 90 1017.4
20260906021518 21 313 1.6 3.2 0.00 0.00 0.00 90 1017.2
20260906021022 21 313 0.0 3.2 0.00 0.00 0.00 90 1017.3
20260906020524 21 313 0.0 4.8 0.00 0.00 0.00 91 1017.1
20260906020029 21 313 3.2 4.8 0.00 0.00 0.00 92 1017.2
20260906015531 21 65 3.2 4.8 0.00 0.00 0.00 92 1017.1
20260906015014 21 65 1.6 3.2 0.00 0.00 0.00 92 1016.9
20260906014516 21 65 0.0 3.2 0.00 0.00 0.00 91 1016.7
20260906014021 21 65 0.0 4.8 0.00 0.00 0.00 91 1016.7
20260906013523 21 65 1.6 4.8 0.00 0.00 0.00 91 1016.6
20260906013029 21 65 1.6 3.2 0.00 0.00 0.00 92 1016.5
20260906012530 21 65 0.0 3.2 0.00 0.00 0.00 92 1016.4
20260906012015 21 65 0.0 3.2 0.00 0.00 0.00 90 1016.3
20260906011517 22 65 1.6 3.2 0.00 0.00 0.00 91 1016.1
20260906011023 22 65 1.6 3.2 0.00 0.00 0.00 90 1016.0
20260906010525 22 65 0.0 3.2 0.00 0.00 0.00 90 1016.0
20260906010029 22 65 1.6 3.2 0.00 0.00 0.00 90 1016.0
20260906005529 22 65 0.0 3.2 0.00 0.00 0.00 89 1015.9
20260906005016 22 65 1.6 3.2 0.00 0.00 0.00 89 1015.8
20260906004521 22 66 3.2 3.2 0.00 0.00 0.00 89 1015.8
20260906004025 22 65 1.6 3.2 0.00 0.00 0.00 88 1015.8
20260906003525 23 65 1.6 4.8 0.00 0.00 0.00 88 1015.9
20260906003030 23 65 3.2 4.8 0.00 0.00 0.00 87 1015.9
20260906002531 23 65 1.6 4.8 0.00 0.00 0.00 87 1015.9
20260906002035 23 350 1.6 3.2 0.00 0.00 0.00 87 1015.8
20260906001516 23 350 1.6 3.2 0.00 0.00 0.00 87 1015.6
20260906001019 23 350 0.0 4.8 0.00 0.00 0.00 87 1015.6
20260906000521 23 350 3.2 4.8 0.00 0.00 0.00 86 1015.6
20260906000024 23 350 3.2 4.8 0.00 0.00 0.00 86 1015.8
20260905235526 23 350 1.6 4.8 0.00 0.00 0.00 84 1015.8
20260905235029 24 350 1.6 4.8 0.00 0.00 0.00 83 1015.8
20260905234527 24 350 1.6 3.2 0.00 0.00 0.00 84 1016.0
20260905234012 24 350 1.6 6.4 0.00 0.00 0.00 83 1016.1
20260905233515 24 350 1.6 6.4 0.00 0.00 0.00 83 1015.9
20260905233041 24 350 1.6 4.8 0.00 0.00 0.00 83 1015.9
20260905232520 24 350 1.6 4.8 0.00 0.00 0.00 83 1015.9
20260905232025 24 350 3.2 4.8 0.00 0.00 0.00 83 1016.0
20260905231525 24 350 3.2 4.8 0.00 0.00 0.00 82 1016.1
20260905231029 24 350 1.6 4.8 0.00 0.00 0.00 81 1016.1
20260905230530 24 350 1.6 4.8 0.00 0.00 0.00 83 1016.2
20260905230014 24 350 1.6 4.8 0.00 0.00 0.00 81 1016.2
20260905225536 24 350 1.6 4.8 0.00 0.00 0.00 81 1016.3
20260905225018 24 350 1.6 6.4 0.00 0.00 0.00 81 1016.3
20260905224521 24 350 3.2 6.4 0.00 0.00 0.00 80 1016.3
20260905224027 24 323 1.6 4.8 0.00 0.00 0.00 79 1016.3
20260905223527 25 323 1.6 4.8 0.00 0.00 0.00 79 1016.4
20260905223033 25 323 3.2 6.4 0.00 0.00 0.00 79 1016.3
20260905222514 25 323 3.2 6.4 0.00 0.00 0.00 78 1016.4
20260905222019 25 323 3.2 4.8 0.00 0.00 0.00 79 1016.3
20260905221522 25 323 1.6 4.8 0.00 0.00 0.00 78 1016.3
20260905221026 25 282 1.6 6.4 0.00 0.00 0.00 78 1016.3
20260905220529 25 45 3.2 9.7 0.00 0.00 0.00 78 1016.4
20260905220052 25 350 3.2 9.7 0.00 0.00 0.00 78 1016.5
20260905215511 25 332 3.2 6.4 0.00 0.00 0.00 79 1016.5
20260905215013 25 24 3.2 12.9 0.00 0.00 0.00 77 1016.4
20260905214514 25 308 1.6 12.9 0.00 0.00 0.00 76 1016.5
20260905214017 25 9 3.2 12.9 0.00 0.00 0.00 77 1016.6
20260905213519 25 230 3.2 12.9 0.00 0.00 0.00 74 1016.6
20260905213023 26 279 3.2 12.9 0.00 0.00 0.00 74 1016.7
20260905212522 26 117 4.8 12.9 0.00 0.00 0.00 75 1016.8
20260905212047 26 134 3.2 12.9 0.00 0.00 0.00 76 1016.9
20260905211523 26 303 4.8 17.7 0.00 0.00 0.00 73 1016.8
20260905211026 26 52 8.0 16.1 0.00 0.00 0.00 74 1016.9
20260905210528 26 20 9.7 17.7 0.00 0.00 0.00 74 1016.8
20260905210013 26 350 4.8 17.7 0.00 0.00 0.00 77 1016.7
20260905205515 26 325 8.0 17.7 0.00 0.00 0.00 78 1016.7
20260905205018 26 18 4.8 17.7 0.00 0.00 0.00 74 1016.7
20260905204540 26 41 3.2 17.7 0.00 0.00 0.00 78 1016.7
20260905204024 26 35 8.0 17.7 0.00 0.00 0.00 78 1016.7
20260905203524 26 11 8.0 17.7 0.00 0.00 0.00 76 1016.6
20260905203028 26 247 4.8 20.9 0.00 0.00 0.00 79 1016.7
20260905202528 26 44 9.7 20.9 0.00 0.00 0.00 79 1016.7
20260905202032 26 344 6.4 19.3 0.00 0.00 0.00 78 1016.8
20260905201513 26 23 6.4 14.5 0.00 0.00 0.00 78 1016.8
20260905201014 26 325 6.4 16.1 0.00 0.00 0.00 78 1016.8
20260905200514 27 259 8.0 20.9 0.00 0.00 0.00 77 1016.7
20260905200019 26 44 6.4 20.9 0.00 0.00 0.00 77 1016.7
20260905195520 26 200 6.4 14.5 0.00 0.00 0.00 77 1016.7
20260905195025 26 294 3.2 14.5 0.00 0.00 0.00 79 1016.8
20260905194529 26 23 4.8 16.1 0.00 0.00 0.00 77 1016.8
20260905194013 27 344 11.3 16.1 0.00 0.00 0.00 80 1016.9
20260905193514 27 248 4.8 14.5 0.00 0.00 0.00 75 1016.9
20260905193018 27 137 6.4 14.5 0.00 0.00 0.00 78 1016.9
20260905192522 26 229 4.8 11.3 0.00 0.00 0.00 75 1016.9
20260905192028 26 78 4.8 12.9 0.00 0.00 0.00 79 1017.0
20260905191528 26 336 4.8 14.5 0.00 0.00 0.00 79 1017.1
20260905191013 26 71 4.8 12.9 0.00 0.00 0.00 79 1017.2
20260905190516 26 331 4.8 8.0 0.00 0.00 0.00 79 1017.2
20260905190021 26 338 3.2 16.1 0.00 0.00 0.00 78 1017.2
20260905185522 26 317 8.0 16.1 0.00 0.00 0.00 78 1017.2
20260905185025 26 87 6.4 16.1 0.00 0.00 0.00 77 1017.0
20260905184527 26 119 4.8 12.9 0.00 0.00 0.00 76 1016.8
20260905184013 26 98 6.4 12.9 0.00 0.00 0.00 77 1016.9
20260905183515 26 295 3.2 8.0 0.00 0.00 0.00 77 1016.9
20260905183021 26 306 4.8 12.9 0.00 0.00 0.00 80 1016.9
20260905182523 26 218 3.2 14.5 0.00 0.00 0.00 76 1016.9
20260905182027 26 350 6.4 14.5 0.00 0.00 0.00 76 1016.9
20260905181529 26 138 3.2 16.1 0.00 0.00 0.00 78 1017.0
20260905181015 26 145 6.4 16.1 0.00 0.00 0.00 80 1017.0
20260905180519 26 101 8.0 12.9 0.00 0.00 0.00 80 1017.0
20260905180043 26 226 3.2 8.0 0.00 0.00 0.00 79 1017.1
20260905175525 26 315 3.2 8.0 0.00 0.00 0.00 77 1017.2
20260905175031 26 317 3.2 8.0 0.00 0.00 0.00 76 1017.4
20260905174512 26 333 3.2 12.9 0.00 0.00 0.00 75 1017.3
20260905174016 26 331 4.8 12.9 0.00 0.00 0.00 76 1017.3
20260905173517 27 138 6.4 14.5 0.00 0.00 0.00 78 1017.3